Simultaneous Nadir Overpasses (SNOs) Predictions

Prediction of SNOs between METOP-B and NPP Satellite Orbit:

Table of predicted SNOs for the next 14.0 days since TLE Epoch: 3/13/2021
Index Date (METOP-B) Time (METOP-B) Lat,Lon (METOP-B) SZA (METOP-B ) Date (NPP) Time (NPP) Lat,Lon (NPP) SZA (NPP ) Distance(km) Time Diff (sec)
1 03/17/2021 04:20:54 73.42, 108.05 74.80 03/17/2021 04:19:47 73.44, 105.29 74.99 87.57 67
2 03/17/2021 05:11:37 -73.37, -84.75 105.26 03/17/2021 05:10:29 -73.35, -87.19 105.13 77.83 68
3 03/17/2021 06:02:21 73.15, 82.10 74.53 03/17/2021 06:01:11 73.15, 80.57 74.63 49.33 70
4 03/17/2021 06:53:05 -73.04,-110.80 105.58 03/17/2021 06:51:53 -73.06,-111.92 105.49 36.34 72
5 03/17/2021 07:43:49 72.82, 56.07 74.21 03/17/2021 07:42:35 72.85, 55.83 74.28 8.47 74
6 03/17/2021 08:34:31 -72.77,-136.72 105.85 03/17/2021 08:33:16 -72.76,-136.66 105.84 1.88 75
7 03/17/2021 09:25:11 72.75, 30.57 74.12 03/17/2021 09:24:02 72.76, 30.66 74.14 3.05 69
8 03/17/2021 10:15:53 -72.75,-162.10 105.90 03/17/2021 10:14:46 -72.77,-162.05 105.86 3.12 67
9 03/17/2021 11:06:32 72.77, 5.29 74.12 03/17/2021 11:05:32 72.76, 5.27 74.12 1.40 60
10 03/17/2021 11:57:14 -72.77, 172.62 105.90 03/17/2021 11:56:16 -72.77, 172.57 105.88 1.68 58
11 03/17/2021 12:47:54 72.75, -20.09 74.07 03/17/2021 12:47:02 72.77, -20.12 74.10 2.10 52
12 03/17/2021 13:38:36 -72.75, 147.23 105.95 03/17/2021 13:37:45 -72.73, 147.28 105.96 2.91 51
13 03/17/2021 14:29:16 72.73, -45.48 74.02 03/17/2021 14:28:31 72.72, -45.40 74.02 2.83 45
14 03/17/2021 15:19:58 -72.73, 121.84 106.00 03/17/2021 15:19:15 -72.74, 121.90 105.98 1.99 43
15 03/17/2021 16:10:37 72.76, -70.76 74.02 03/17/2021 16:10:01 72.73, -70.78 74.00 2.97 36
16 03/17/2021 17:01:19 -72.76, 96.56 106.00 03/17/2021 17:00:45 -72.74, 96.51 106.01 2.28 34
17 03/17/2021 17:51:59 72.73, -96.15 73.97 03/17/2021 17:51:31 72.74, -96.17 73.98 0.75 28
18 03/17/2021 18:42:41 -72.73, 71.17 106.05 03/17/2021 18:42:15 -72.75, 71.12 106.03 2.34 26
19 03/17/2021 19:33:21 72.71,-121.54 73.92 03/17/2021 19:33:00 72.69,-121.45 73.90 3.50 21
20 03/17/2021 20:24:03 -72.71, 45.79 106.10 03/17/2021 20:23:44 -72.70, 45.84 106.10 1.94 19
21 03/17/2021 21:14:43 72.69,-146.92 73.87 03/17/2021 21:14:30 72.70,-146.84 73.88 2.99 13
22 03/17/2021 22:05:25 -72.69, 20.40 106.15 03/17/2021 22:05:14 -72.71, 20.45 106.13 2.99 11
23 03/17/2021 22:56:04 72.72,-172.21 73.87 03/17/2021 22:56:00 72.70,-172.23 73.86 1.52 4
24 03/17/2021 23:46:46 -72.72, -4.88 106.15 03/17/2021 23:46:44 -72.72, -4.93 106.15 1.68 2
25 03/18/2021 00:37:26 72.69, 162.41 73.82 03/18/2021 00:37:30 72.71, 162.39 73.84 1.98 4
26 03/18/2021 01:28:08 -72.69, -30.27 106.20 03/18/2021 01:28:13 -72.67, -30.21 106.22 3.03 5
27 03/18/2021 02:18:48 72.67, 137.02 73.77 03/18/2021 02:18:59 72.67, 137.10 73.76 2.82 11
28 03/18/2021 03:09:30 -72.67, -55.65 106.25 03/18/2021 03:09:43 -72.68, -55.60 106.25 1.91 13
29 03/18/2021 04:00:09 72.70, 111.74 73.77 03/18/2021 04:00:29 72.67, 111.72 73.74 3.11 20
30 03/18/2021 04:50:51 -72.70, -80.94 106.25 03/18/2021 04:51:13 -72.68, -80.99 106.27 2.40 22
31 03/18/2021 05:41:31 72.68, 86.35 73.72 03/18/2021 05:41:59 72.68, 86.33 73.72 0.74 28
32 03/18/2021 06:32:13 -72.68,-106.32 106.30 03/18/2021 06:32:43 -72.69,-106.37 106.29 2.26 30
33 03/18/2021 07:22:53 72.65, 60.97 73.67 03/18/2021 07:23:29 72.68, 60.94 73.70 3.48 36
34 03/18/2021 08:13:35 -72.65,-131.71 106.35 03/18/2021 08:14:12 -72.64,-131.66 106.37 1.97 37
35 03/18/2021 09:04:15 72.63, 35.58 73.63 03/18/2021 09:04:58 72.64, 35.66 73.62 2.89 43
36 03/18/2021 09:54:57 -72.63,-157.10 106.39 03/18/2021 09:55:42 -72.65,-157.04 106.39 2.85 45
37 03/18/2021 10:45:36 72.66, 10.30 73.62 03/18/2021 10:46:28 72.65, 10.27 73.60 1.66 52
38 03/18/2021 11:36:18 -72.66, 177.62 106.40 03/18/2021 11:37:12 -72.66, 177.57 106.41 1.73 54
39 03/18/2021 12:26:58 72.64, -15.09 73.57 03/18/2021 12:27:58 72.65, -15.11 73.58 1.89 60
40 03/18/2021 13:17:40 -72.63, 152.24 106.45 03/18/2021 13:18:41 -72.61, 152.29 106.49 3.11 61
41 03/18/2021 14:08:20 72.61, -40.48 73.53 03/18/2021 14:09:27 72.61, -40.39 73.50 2.77 67
42 03/18/2021 14:59:02 -72.61, 126.85 106.49 03/18/2021 15:00:11 -72.62, 126.90 106.51 1.79 69
43 03/18/2021 15:49:43 72.54, -65.96 73.43 03/18/2021 15:50:56 72.56, -65.68 73.42 9.89 73
44 03/18/2021 16:40:26 -72.49, 101.26 106.63 03/18/2021 16:41:39 -72.52, 101.72 106.64 15.88 73
45 03/18/2021 17:31:10 72.26, -91.86 73.16 03/18/2021 17:32:20 72.26, -90.45 73.07 47.47 70
46 03/18/2021 18:21:53 -72.21, 75.37 106.90 03/18/2021 18:23:03 -72.22, 76.94 106.99 53.20 70
47 03/18/2021 19:12:38 71.93,-117.83 72.85 03/18/2021 19:13:44 71.96,-115.25 72.71 88.92 66
48 03/18/2021 20:03:21 -71.88, 49.41 107.22 03/18/2021 20:04:27 -71.92, 52.14 107.35 94.52 66



Historial Predications of SNOs between METOP-B and NPP
